Flag for Poland Weather past 2 weeks in Katowice, Poland

Now
45 °F

Partly sunny.


Feels Like: 39 °F
Forecast: 33 / 42 °F
Wind: 12 mph from Southwest

Location: Katowice Airport

Current Time: Mar 2, 2015 at 4:14:53 PM

Latest Report: Mar 2, 2015 at 3:30 PM


Visibility: N/A

Pressure: 29.53 "Hg

Humidity: 81%

Dew point: 39 °F

Location of KatowiceLocation

Historic Weather in Katowice — Graph

°F

Katowice temperature yesterday

Maximum temperature yesterday: 48 °F (at 1:30 PM)
Minimum temperature yesterday: 34 °F (at 6:30 AM)
Average temperature yesterday: 41 °F

Past Weeks' High & Low Weather Summary

 TemperatureHumidityPressure
High52 °F (Feb 23, 3:00 PM)100% (Feb 22, 2:30 AM)30.69 "Hg (Feb 22, 2:30 AM)
Low21 °F (Feb 17, 4:30 AM)29% (Feb 21, 1:00 PM)29.50 "Hg (Mar 2, 11:30 AM)
Average37 °F80%30.02 "Hg
* Reported Feb 15 3:00 PM — Mar 2 3:00 PM, Katowice, Weather by CustomWeather, © 2015

Note: Actual official high and low records may vary slightly from our data, if they occured in-between our weather recording intervals... More about our weather records

Advertising

Katowice weather history for previous 24 hours

 ConditionsComfort  
Time TempWeatherWind HumidityBarometerVisibility
3:00 PM
Mon, Mar 2
45 °FSprinkles. Partly sunny.16 mph81%29.53 "HgN/A
2:30 PM46 °FPassing clouds.14 mph76%29.53 "HgN/A
2:00 PM46 °FPassing clouds.15 mph82%29.53 "HgN/A
1:30 PM46 °FPassing clouds.15 mph82%29.50 "HgN/A
1:00 PM46 °FScattered clouds.15 mph87%29.50 "HgN/A
12:30 PM46 °FScattered clouds.14 mph82%29.50 "HgN/A
12:00 PM45 °FSunny.14 mph87%29.50 "Hg10 mi
11:30 AM43 °FSprinkles. Partly sunny.13 mph87%29.50 "Hg5 mi
11:00 AM43 °FRain showers. Broken clouds.9 mph93%29.53 "Hg4 mi
10:30 AM45 °FSprinkles. Broken clouds.10 mph87%29.53 "HgN/A
10:00 AM45 °FLight rain. Partly sunny.10 mph81%29.53 "HgN/A
9:30 AM45 °FPartly sunny.7 mph76%29.53 "HgN/A
9:00 AM43 °FPartly sunny.8 mph81%29.56 "HgN/A
8:30 AM41 °FPartly sunny.6 mph87%29.56 "HgN/A
8:00 AM39 °FPartly sunny.6 mph87%29.56 "HgN/A
7:30 AM39 °FPartly sunny.5 mph87%29.59 "HgN/A
7:00 AM41 °FBroken clouds.5 mph81%29.59 "HgN/A
6:30 AM41 °FPartly sunny.7 mph81%29.62 "HgN/A
6:00 AM39 °FPassing clouds.6 mph87%29.62 "HgN/A
5:30 AM39 °FPassing clouds.8 mph87%29.62 "HgN/A
5:00 AM37 °FClear.9 mph93%29.65 "Hg10 mi
4:30 AM37 °FClear.8 mph93%29.65 "Hg10 mi
4:00 AM37 °FPassing clouds.7 mph93%29.65 "HgN/A
3:30 AM37 °FClear.7 mph87%29.65 "Hg10 mi
3:00 AM39 °FPassing clouds.8 mph87%29.68 "HgN/A
2:30 AM39 °FPassing clouds.7 mph87%29.68 "HgN/A
2:00 AM41 °FPassing clouds.8 mph81%29.68 "HgN/A
1:30 AM41 °FPassing clouds.7 mph81%29.68 "HgN/A
1:00 AM41 °FPassing clouds.7 mph81%29.71 "HgN/A
12:30 AM39 °FPassing clouds.7 mph87%29.71 "HgN/A
12:00 AM41 °FPassing clouds.8 mph81%29.71 "HgN/A
11:30 PM
Sun, Mar 1
41 °FPassing clouds.10 mph81%29.71 "HgN/A
11:00 PM41 °FPassing clouds.12 mph81%29.71 "HgN/A
10:30 PM41 °FPassing clouds.15 mph81%29.71 "HgN/A
10:00 PM43 °FPassing clouds.15 mph76%29.71 "HgN/A
9:30 PM43 °FPartly cloudy.15 mph71%29.71 "HgN/A
8:30 PM43 °FPassing clouds.14 mph76%29.71 "HgN/A
8:00 PM43 °FPassing clouds.15 mph71%29.71 "HgN/A
7:30 PM43 °FPassing clouds.15 mph66%29.71 "HgN/A
7:00 PM43 °FPassing clouds.12 mph66%29.71 "HgN/A
6:30 PM43 °FPassing clouds.15 mph61%29.71 "HgN/A
6:00 PM45 °FPassing clouds.15 mph61%29.74 "HgN/A
5:30 PM45 °FPassing clouds.15 mph57%29.74 "HgN/A
5:00 PM46 °FScattered clouds.13 mph53%29.74 "HgN/A
4:30 PM46 °FPassing clouds.14 mph53%29.74 "HgN/A
4:00 PM48 °FPassing clouds.18 mph50%29.74 "HgN/A
Weather by CustomWeather, © 2015

See weather overviewHow to use our weather pages